Baudette, MN

9:42 AM CST on December 17, 2017 (GMT -0600)
Baudette International

Weather History for KBDE - January, 2013

Change the Weather History Date:

Friday, January 18, 2013

  Actual Average Record
Temperature  
Mean Temperature 4 °F -  
Max Temperature 10 °F 16 °F 41 °F (1981)
Min Temperature -2 °F -6 °F -42 °F (1950)
Degree Days  
Heating Degree Days 61    
Moisture  
Dew Point 1 °F    
Average Humidity 83    
Maximum Humidity 92    
Minimum Humidity 77    
Precipitation  
Precipitation 0.03 in - - ()
Sea Level Pressure  
Sea Level Pressure 29.89 in    
Wind  
Wind Speed 8 mph (ESE)    
Max Wind Speed 12 mph    
Max Gust Speed -    
Visibility 4 miles    
Events Snow    
Averages and records for this station are not official NWS values.
T = Trace of Precipitation, MM = Missing Value Source: NWS Daily Summary

Daily Weather History Graph

Daily Weather History Graph

Search for Another Location

Airport or City:

Trip Planner

Search our weather history database for the weather conditions in past years. The results will help you decide how hot, cold, wet, or windy it might be!

Date:

Astronomy

Jan. 18, 2013 Rise Set
Actual Time 8:03 AM CST 4:54 PM CST
Civil Twilight 7:28 AM CST 5:30 PM CST
Nautical Twilight 6:49 AM CST 6:09 PM CST
Astronomical Twilight 6:11 AM CST 6:46 PM CST
Moon 11:00 AM CST (1/18) 12:25 AM CST (1/18)
Length of Visible Light 10h 02m
Length of Day
8h 51m
Waxing Crescent, 47% of the Moon is Illuminated
Jan 18
Waxing Crescent
Jan 18
First Quarter
Jan 26
Full
Feb 3
Last Quarter
Feb 10
New

Hourly Weather History & Observations

Time (CST) Temp. Windchill Dew Point Humidity Pressure Visibility Wind Dir Wind Speed Gust Speed Precip Events Conditions
12:53 AM -2.9 °F -11.2 °F -7.1 °F 82% 30.23 in 10.0 mi SE 3.5 mph - N/A   Overcast
1:53 AM -0.9 °F -8.9 °F -6.0 °F 79% 30.20 in 10.0 mi SE 3.5 mph - N/A   Overcast
2:53 AM -0.0 °F -15.3 °F -5.1 °F 79% 30.18 in 2.5 mi ESE 9.2 mph - 0.00 in Snow Light Snow
3:01 AM -0.4 °F -13.4 °F -5.8 °F 78% 30.08 in 1.2 mi ESE 6.9 mph - 0.00 in Snow Light Snow
3:06 AM -0.4 °F -14.7 °F -5.8 °F 78% 30.08 in 1.5 mi ESE 8.1 mph - 0.00 in Snow Light Snow
3:41 AM -0.4 °F -15.7 °F -4.0 °F 85% 30.04 in 1.0 mi ESE 9.2 mph - 0.00 in Snow Light Snow
3:53 AM -0.0 °F -15.3 °F -4.0 °F 83% 30.13 in 1.0 mi ESE 9.2 mph - 0.00 in Snow Light Snow
4:01 AM -0.4 °F -15.7 °F -4.0 °F 85% 30.02 in 1.5 mi ESE 9.2 mph - 0.00 in Snow Light Snow
4:36 AM -0.4 °F -16.7 °F -4.0 °F 85% 29.98 in 3.0 mi ESE 10.4 mph - 0.00 in Snow Light Snow
4:46 AM 1.4 °F -15.3 °F -4.0 °F 78% 29.96 in 3.0 mi ESE 11.5 mph - 0.00 in Snow Light Snow
4:53 AM 1.0 °F -15.8 °F -2.9 °F 83% 30.06 in 3.0 mi ESE 11.5 mph - 0.00 in Snow Light Snow
5:48 AM 1.4 °F -15.3 °F -2.2 °F 85% 29.93 in 1.8 mi ESE 11.5 mph - 0.00 in Snow Light Snow
5:53 AM 1.0 °F -14.9 °F -2.9 °F 83% 30.03 in 1.8 mi ESE 10.4 mph - 0.00 in Snow Light Snow
6:00 AM 1.4 °F -15.3 °F -2.2 °F 85% 29.92 in 2.5 mi ESE 11.5 mph - 0.00 in Snow Light Snow
6:08 AM 1.4 °F -15.3 °F -2.2 °F 85% 29.92 in 3.0 mi ESE 11.5 mph - 0.01 in Snow Light Snow
6:49 AM 1.4 °F -14.5 °F -2.2 °F 85% 29.89 in 2.0 mi ESE 10.4 mph - 0.01 in Snow Light Snow
6:53 AM 1.9 °F -12.9 °F -2.0 °F 83% 29.99 in 2.0 mi East 9.2 mph - 0.01 in Snow Light Snow
7:07 AM 1.4 °F -12.5 °F -2.2 °F 85% 29.89 in 4.0 mi ESE 8.1 mph - 0.00 in Snow Light Snow
7:45 AM 1.4 °F -14.5 °F -2.2 °F 85% 29.86 in 2.5 mi ESE 10.4 mph - 0.00 in Snow Light Snow
7:51 AM 1.4 °F -14.5 °F -2.2 °F 85% 29.86 in 1.2 mi ESE 10.4 mph - 0.00 in Snow Light Snow
7:53 AM 1.9 °F -12.9 °F -2.0 °F 83% 29.96 in 1.2 mi ESE 9.2 mph - 0.00 in Snow Light Snow
8:03 AM 1.4 °F -13.5 °F -0.4 °F 92% 29.85 in 2.0 mi ESE 9.2 mph - N/A Snow Light Snow
8:13 AM 1.4 °F -14.5 °F -0.4 °F 92% 29.85 in 3.0 mi ESE 10.4 mph - 0.00 in Snow Light Snow
8:43 AM 3.2 °F -13.1 °F -0.4 °F 85% 29.84 in 2.5 mi ESE 11.5 mph - 0.00 in Snow Light Snow
8:45 AM 3.2 °F -12.2 °F -0.4 °F 85% 29.84 in 3.0 mi East 10.4 mph - 0.00 in Snow Light Snow
8:53 AM 3.0 °F -12.5 °F -0.9 °F 84% 29.95 in 4.0 mi ESE 10.4 mph - 0.00 in Snow Light Snow
9:53 AM 5.0 °F -10.0 °F -0.0 °F 80% 29.96 in 3.0 mi East 10.4 mph - 0.00 in Snow Light Snow
9:58 AM 5.0 °F -9.1 °F -0.4 °F 78% 29.85 in 2.0 mi East 9.2 mph - 0.00 in Snow Light Snow
10:03 AM 5.0 °F -9.1 °F 1.4 °F 85% 29.85 in 1.2 mi East 9.2 mph - 0.00 in Snow Light Snow
10:09 AM 5.0 °F -9.1 °F 1.4 °F 85% 29.84 in 0.8 mi East 9.2 mph - 0.00 in Snow Light Snow
10:26 AM 5.0 °F -8.1 °F 1.4 °F 85% 29.83 in 1.2 mi ESE 8.1 mph - 0.00 in Snow Light Snow
10:45 AM 5.0 °F -8.1 °F 1.4 °F 85% 29.82 in 1.0 mi ESE 8.1 mph - 0.00 in Snow Light Snow
10:48 AM 5.0 °F -9.1 °F 1.4 °F 85% 29.82 in 1.2 mi ESE 9.2 mph - 0.00 in Snow Light Snow
10:53 AM 6.1 °F -7.8 °F 1.0 °F 80% 29.91 in 1.5 mi East 9.2 mph - 0.00 in Snow Light Snow
11:15 AM 6.8 °F -7.8 °F 1.4 °F 79% 29.79 in 3.0 mi ESE 10.4 mph - 0.00 in Snow Light Snow
11:27 AM 6.8 °F -4.8 °F 1.4 °F 79% 29.78 in 2.0 mi ESE 6.9 mph - 0.00 in Snow Light Snow
11:30 AM 6.8 °F -5.9 °F 1.4 °F 79% 29.78 in 1.2 mi ESE 8.1 mph - 0.01 in Snow Light Snow
11:38 AM 6.8 °F -6.9 °F 3.2 °F 85% 29.77 in 1.0 mi ESE 9.2 mph - 0.01 in Snow Light Snow
11:46 AM 6.8 °F -6.9 °F 1.4 °F 79% 29.77 in 1.5 mi ESE 9.2 mph - 0.01 in Snow Light Snow
11:53 AM 7.0 °F -6.6 °F 3.0 °F 84% 29.86 in 1.8 mi ESE 9.2 mph - 0.01 in Snow Light Snow
12:00 PM 6.8 °F -6.9 °F 3.2 °F 85% 29.76 in 1.0 mi ESE 9.2 mph - 0.00 in Snow Light Snow
12:11 PM 8.6 °F -4.7 °F 3.2 °F 79% 29.76 in 1.5 mi ESE 9.2 mph - 0.00 in Snow Light Snow
12:15 PM 8.6 °F -3.7 °F 3.2 °F 79% 29.76 in 2.5 mi ESE 8.1 mph - 0.00 in Snow Light Snow
12:23 PM 8.6 °F -2.6 °F 3.2 °F 79% 29.75 in 5.0 mi ESE 6.9 mph - 0.00 in Snow Light Snow
12:53 PM 9.0 °F 0.6 °F 3.9 °F 80% 29.86 in 10.0 mi East 4.6 mph - 0.00 in   Overcast
1:53 PM 9.0 °F -2.2 °F 3.9 °F 80% 29.84 in 10.0 mi East 6.9 mph - N/A   Overcast
2:53 PM 10.0 °F -0.9 °F 5.0 °F 80% 29.81 in 10.0 mi East 6.9 mph - N/A   Overcast
3:53 PM 10.0 °F 0.4 °F 5.0 °F 80% 29.83 in 10.0 mi NE 5.8 mph - N/A   Overcast
4:53 PM 10.9 °F 2.9 °F 5.0 °F 77% 29.84 in 10.0 mi ENE 4.6 mph - N/A   Overcast
5:53 PM 10.9 °F 2.9 °F 6.1 °F 81% 29.83 in 10.0 mi East 4.6 mph - 0.00 in   Partly Cloudy
6:53 PM 10.9 °F 0.2 °F 6.1 °F 81% 29.84 in 6.0 mi East 6.9 mph - 0.00 in Snow Light Snow
7:53 PM 10.0 °F 3.6 °F 7.0 °F 87% 29.86 in 3.0 mi East 3.5 mph - 0.00 in Snow Light Snow
8:02 PM 10.4 °F 4.0 °F 6.8 °F 85% 29.77 in 2.0 mi East 3.5 mph - 0.00 in Snow Light Snow
8:13 PM 10.4 °F 4.0 °F 6.8 °F 85% 29.76 in 1.8 mi East 3.5 mph - 0.01 in Snow Light Snow
8:22 PM 10.4 °F - 6.8 °F 85% 29.75 in 3.0 mi Calm Calm - 0.01 in Snow Light Snow
8:53 PM 10.0 °F 3.6 °F 7.0 °F 87% 29.83 in 7.0 mi East 3.5 mph - 0.01 in   Overcast
9:53 PM 10.0 °F 1.8 °F 7.0 °F 87% 29.81 in 10.0 mi ESE 4.6 mph - N/A   Overcast
10:53 PM 10.9 °F 4.7 °F 7.0 °F 84% 29.79 in 10.0 mi SE 3.5 mph - N/A   Overcast
11:53 PM 10.9 °F 1.4 °F 8.1 °F 88% 29.77 in 7.0 mi ESE 5.8 mph - 0.00 in   Overcast